Moab, UT

10:45 PM MDT on April 22, 2018 (GMT -0600)
Canyonlands

Weather History for KCNY - February, 2013

Change the Weather History Date:

Friday, February 22, 2013

  Actual Average Record
Temperature  
Mean Temperature 33 °F 38 °F  
Max Temperature 41 °F 50 °F 70 °F (1958)
Min Temperature 25 °F 26 °F 8 °F (1939)
Degree Days  
Heating Degree Days 32 27  
Month to date heating degree days 716 678  
Since 1 July heating degree days 4722 4253  
Cooling Degree Days 0 0  
Month to date cooling degree days 0 0  
Year to date cooling degree days 0 0  
Moisture  
Dew Point 12 °F    
Average Humidity 44    
Maximum Humidity 58    
Minimum Humidity 30    
Precipitation  
Precipitation 0.00 in 0.01 in 0.19 in (1980)
Month to date precipitation 0.15 0.42  
Year to date precipitation 0.59 1.06  
Sea Level Pressure  
Sea Level Pressure 30.02 in    
Wind  
Wind Speed 7 mph (WNW)    
Max Wind Speed 17 mph    
Max Gust Speed 21 mph    
Visibility 10 miles    
Events      
T = Trace of Precipitation, MM = Missing Value Source: NWS Daily Summary

Daily Weather History Graph

Daily Weather History Graph

Search for Another Location

Airport or City:

Astronomy

Feb. 22, 2013 Rise Set
Actual Time 7:00 AM MST 6:04 PM MST
Civil Twilight 6:33 AM MST 6:31 PM MST
Nautical Twilight 6:02 AM MST 7:02 PM MST
Astronomical Twilight 5:32 AM MST 7:33 PM MST
Moon 3:20 PM MST (2/22) 4:46 AM MST (2/22)
Length of Visible Light 11h 58m
Length of Day
11h 04m
Waxing Gibbous, 90% of the Moon is Illuminated
Feb 22
Waxing Gibbous
Feb 25
Full
Mar 4
Last Quarter
Mar 11
New
Mar 19
First Quarter

Hourly Weather History & Observations

Time (MST) Temp. Windchill Dew Point Humidity Pressure Visibility Wind Dir Wind Speed Gust Speed Precip Events Conditions
12:53 AM 33.1 °F 24.4 °F 14.0 °F 46% 29.90 in 10.0 mi West 11.5 mph - N/A   Overcast
1:53 AM 32.0 °F 24.2 °F 15.1 °F 50% 29.91 in 10.0 mi West 9.2 mph - N/A   Overcast
2:53 AM 32.0 °F 24.2 °F 14.0 °F 48% 29.91 in 10.0 mi West 9.2 mph - N/A   Overcast
3:53 AM 30.9 °F 23.5 °F 18.0 °F 59% 29.92 in 10.0 mi West 8.1 mph - N/A   Overcast
4:53 AM 30.9 °F 22.8 °F 12.9 °F 47% 29.93 in 10.0 mi West 9.2 mph - N/A   Overcast
5:53 AM 30.0 °F 20.5 °F 10.9 °F 45% 29.96 in 10.0 mi West 11.5 mph - N/A   Overcast
6:53 AM 28.9 °F 20.4 °F 10.0 °F 45% 29.98 in 10.0 mi West 9.2 mph - N/A   Overcast
7:53 AM 28.9 °F 19.8 °F 9.0 °F 43% 30.02 in 10.0 mi WNW 10.4 mph - N/A   Partly Cloudy
8:53 AM 32.0 °F 22.1 °F 10.0 °F 40% 30.02 in 10.0 mi West 13.8 mph - N/A   Clear
9:53 AM 33.1 °F 24.9 °F 10.0 °F 38% 30.03 in 10.0 mi WNW 10.4 mph - N/A   Mostly Cloudy
10:53 AM 34.0 °F 28.8 °F 16.0 °F 48% 30.05 in 10.0 mi NNW 5.8 mph - N/A   Clear
11:53 AM 37.0 °F 31.0 °F 16.0 °F 42% 30.05 in 10.0 mi NW 8.1 mph - N/A   Partly Cloudy
12:53 PM 39.0 °F 33.4 °F 10.9 °F 32% 30.02 in 10.0 mi WNW 8.1 mph - N/A   Mostly Cloudy
1:53 PM 37.0 °F - 12.9 °F 37% 30.01 in 10.0 mi Calm Calm - N/A   Overcast
2:53 PM 39.9 °F 33.4 °F 12.9 °F 33% 30.01 in 10.0 mi NNW 10.4 mph 19.6 mph N/A   Mostly Cloudy
3:53 PM 39.9 °F 35.8 °F 10.9 °F 31% 30.01 in 10.0 mi WNW 5.8 mph - N/A   Scattered Clouds
4:53 PM 39.0 °F - 10.0 °F 30% 30.02 in 10.0 mi Calm Calm - N/A   Overcast
5:53 PM 37.0 °F - 10.0 °F 33% 30.04 in 10.0 mi Calm Calm - N/A   Clear
6:53 PM 33.1 °F - 12.0 °F 42% 30.08 in 10.0 mi Calm Calm - N/A   Clear
7:53 PM 30.0 °F 26.5 °F 12.0 °F 47% 30.09 in 10.0 mi West 3.5 mph - N/A   Clear
8:53 PM 32.0 °F 23.6 °F 10.9 °F 42% 30.09 in 10.0 mi West 10.4 mph - N/A   Clear
9:53 PM 30.9 °F 21.7 °F 10.9 °F 43% 30.11 in 10.0 mi West 11.5 mph - N/A   Clear
10:53 PM 25.0 °F 18.1 °F 10.9 °F 55% 30.12 in 10.0 mi WSW 5.8 mph - N/A   Clear
11:53 PM 26.1 °F 19.4 °F 12.0 °F 55% 30.09 in 10.0 mi WSW 5.8 mph - N/A   Clear